Regional Weather Roundup
Issued by NWS

Home | Current Version | Previous Version | Graphics & Text | Print | Product List | Glossary Off
Versions: 1 2 3 4 5 6 7 8 9 10 11 12 13 14 15 16 17 18 19 20 21 22 23 24 25 26 27 28 29 30 31 32 33 34 35 36 37 38 39 40 41 42 43 44 45 46 47 48 49 50

000
ASUS43 KDTX 281601
RWRMI
MICHIGAN HOURLY REGIONAL WEATHER ROUNDUP
NATIONAL WEATHER SERVICE DETROIT/PONTIAC MI
1100 AM EST SUN DEC 28 2014

NOTE: "FAIR" INDICATES FEW OR NO CLOUDS BELOW 12,000 FEET WITH NO
SIGNIFICANT WEATHER AND/OR OBSTRUCTION TO VISIBILITY.

MIZ047>049-052>055-059>063-066>070-074>076-081>083-281700-
SOUTHEAST LOWER MICHIGAN

CITY           SKY/WX    TMP DP  RH WIND       PRES   REMARKS
ADRIAN         CLOUDY    36  27  69 NW7       30.13R WCI  30
ALMA           MOSUNNY   30  23  74 W9        30.11S WCI  22
ANN ARBOR      CLOUDY    36  28  73 W10       30.11R WCI  28
BAD AXE        PTSUNNY   32  25  76 W10       30.07R WCI  24
CARO           PTSUNNY   32  26  77 W10       30.08R WCI  24
DETROIT CITY   CLOUDY    39  29  67 W8        30.11R WCI  33
DETROIT        CLOUDY    37  29  72 W10       30.12R WCI  30
FLINT          CLOUDY    34  25  69 W16       30.11R WCI  24
GROSSE ILE     CLOUDY    37  30  75 W12       30.11R WCI  30
HILLSDALE      CLOUDY    33  26  75 W12       30.12R WCI  25
HOWELL         CLOUDY    33  27  77 W9        30.10R WCI  26

CITY           SKY/WX    TMP DP  RH WIND       PRES   REMARKS
JACKSON        CLOUDY    33  24  69 W12       30.12R WCI  24
LAMBERTVILLE   CLOUDY    37  32  81 NW5       30.13S WCI  34
LANSING        CLOUDY    30  24  78 W9        30.13R WCI  22
LAPEER         CLOUDY    33  28  79 W10       30.08R WCI  25
MASON          CLOUDY    32  24  71 W10       30.11S WCI  24
MONROE         CLOUDY    36  30  80 W14       30.11R WCI  27
MT. CLEMENS    PTSUNNY   37  28  70 W12       30.07R WCI  30
PONTIAC        CLOUDY    34  26  72 NW13      30.08R WCI  25
PORT HOPE        N/A     33  22  63 W9        30.04R WCI  25
PORT HURON     CLOUDY    36  28  75 W6        30.09R WCI  31
TRI CITIES     PTSUNNY   33  24  69 W15       30.10R WCI  23
TROY           CLOUDY    37  30  74 W7        30.11R WCI  32
SAGINAW HB     PTSUNNY   32  27  80 SW10      30.09R WCI  24
$$
MIZ043>046-050>051-056>058-064>065-071>073-077>080-281700-
SOUTHWEST LOWER MICHIGAN

CITY           SKY/WX    TMP DP  RH WIND       PRES   REMARKS
BATTLE CREEK   CLOUDY    33  23  66 W10       30.14R WCI  25
BENTON HARBOR  CLOUDY    31  24  75 W12       30.17R WCI  22
BIG RAPIDS     SUNNY     30  24  76 W12       30.09R WCI  21
COLDWATER      CLOUDY    33  24  71 NW9       30.14R WCI  25
FREMONT        FAIR      31  23  73 W7        30.12R WCI  24
HOLLAND        PTSUNNY   34  24  67 W10       30.16R WCI  26
GRAND RAPIDS   PTSUNNY   31  22  69 W7        30.13R WCI  24
IONIA          FAIR      31  24  75 W8        30.12R WCI  23
KALAMAZOO      CLOUDY    33  23  66 W8        30.15R WCI  26
LUDINGTON      PTSUNNY   30  23  74 NW8       30.12S WCI  23
MARSHALL       CLOUDY    32  24  71 W8        30.13R WCI  25
MOUNT PLEASANT MOSUNNY   31  20  65 CALM      30.09R
MUSKEGON       MOSUNNY   34  21  59 NW9       30.14R WCI  27
SOUTH HAVEN    CLOUDY    33  24  70 W8        30.17R WCI  26
$$
MIZ016>042-281700-
NORTHERN LOWER MICHIGAN

CITY           SKY/WX    TMP DP  RH WIND       PRES   REMARKS
ALPENA         MOSUNNY   30  17  58 W14G21    30.03R WCI  19
BEAVER ISLAND  CLOUDY    27  21  80 W10       30.03R WCI  17
BELLAIRE       CLOUDY    30  20  66 SW10      30.07R WCI  21
CADILLAC       PTSUNNY   28  21  75 SW9       30.04R WCI  19
CHARLEVOIX     CLOUDY    29  21  72 W14G20    30.07R WCI  18
FRANKFORT      PTSUNNY   29  22  76 W9        30.09S WCI  20
GAYLORD        MOSUNNY   26  18  71 W10G20    30.00R WCI  16
GRAYLING       MOSUNNY   28  19  69 W13       30.04R WCI  18
HARBOR SPRINGS CLOUDY    29  18  63 W9G20     30.03R WCI  21
HOUGHTON LAKE  SUNNY     28  19  69 W9        30.04S WCI  19
MANISTEE       CLOUDY    28  19  69 W10       30.11R WCI  19
OSCODA         SUNNY     33  20  60 W14G20    30.03S WCI  23
PELLSTON       PTSUNNY   28  20  71 W10       30.02R WCI  19
ROGERS CITY    SUNNY     31  22  70 W9G16     30.02S WCI  22
TRAVERSE CITY  PTSUNNY   29  21  72 W7        30.07R WCI  22
$$
MIZ007>008-015-281700-
EASTERN UPPER MICHIGAN

CITY           SKY/WX    TMP DP  RH WIND       PRES   REMARKS
KINROSS        CLOUDY    25  21  86 W13       29.97R WCI  13
MACKINAC ISLAN CLOUDY    28  20  72 W18       30.00R WCI  15
NEWBERRY       CLOUDY    19  17  93 W10       29.99R WCI   7
S. S. MARIE    LGT SNOW  25  19  78 W10       29.94R VSB 1   WCI  15
MUNISING         N/A     24  17  74 W8        30.03R WCI  15
$$
MIZ004>006-011>014-085-281700-
CENTRAL UPPER MICHIGAN

CITY           SKY/WX    TMP DP  RH WIND       PRES   REMARKS
MANISTIQUE     CLOUDY    20  17  88 W10       30.03R WCI   8
ESCANABA       CLOUDY    19  12  73 W13       30.06R WCI   7
MENOMINEE      SUNNY     19  12  73 NW5       30.10R WCI  13
SAWYER-GWINN   LGT SNOW  18  14  86 W6        30.01R WCI   9
$$
MIZ001>003-009>011-084-281700-
WESTERN UPPER MICHIGAN

CITY           SKY/WX    TMP DP  RH WIND       PRES   REMARKS
IRON MOUNTAIN  FLURRIES  16  11  80 W8        30.05R WCI   5
HOUGHTON       CLOUDY    17   7  64 NW15      30.02R WCI   2
COPPER HARBOR    N/A     20  11  68 N24G30    30.04R WCI   3
IRONWOOD       CLOUDY    16  12  86 W9        30.05R WCI   4
$$

ABBREVIATIONS USED IN REMARKS
   TC - TEMPERATURE IN CELSIUS
  WCI - WIND CHILL INDEX
   HX - HEAT INDEX
  VSB - VISIBILITY




USA.gov is the U.S. government's official web portal to all federal, state and local government web resources and services.